Location: Chacón
(10.5789°N, 66.9317°W)
Time: 04:14:54
(UTC+00:00)

Cosmos 962 Rocket - Pass Details

Date: 20 October 2025
Orbit: 950 x 998 km, 82.9° (Epoch: 17 November)

Event Time Altitude Azimuth Distance (km) Brightness Sun altitude
Rises 07:05:50 0° 29° (NNE) 3,680 7.7 -47.4°
Reaches altitude 10° 07:09:50 10° 53° (NE) 2,721 7.2 -46.5°
Maximum altitude 07:12:50 14° 83° (E) 2,440 7.1 -45.7°
Drops below altitude 10° 07:15:50 10° 112° (ESE) 2,705 7.4 -45.0°
Sets 07:19:44 0° 137° (SE) 3,641 8.0 -44.0°
